Volver al catálogo

KUIPER-00259

ActivoComunicacionesLEO
NORAD 67786·PAYLOAD·🇺🇸 United States

Lanzado Feb 12, 2026 desde Guiana Space Centre

Loading…

Próximos Pases (próximas 24 horas)

TLE

ActualizadoSource: CelesTrak SupGP

Época: Sep 14, 2026, 16:18 UTC

1 67786C 26030Y   26257.67929398 -.00002853  00000+0 -37361-3 0  2579
2 67786  51.8972  82.3928 0000719 112.3872 222.3781 14.79923859    14

Sigue KUIPER-00259 en tiempo real con AllMySat

Download on the App Store